Volver al catálogo

STARLINK-34748

ActivoComunicacionesSSO
NORAD 64848·PAYLOAD·🇺🇸 United States

Lanzado Jul 19, 2025 desde Vandenberg Space Force Base

Loading…

Próximos Pases (próximas 24 horas)

TLE

ActualizadoSource: CelesTrak SupGP

Época: Sep 14, 2026, 21:02 UTC

1 64848C 25152G   26257.87687500  .00023256  00000+0  72219-3 0  2576
2 64848  97.2841 108.4998 0001939  92.1455 179.1560 15.33414501    17

Sigue STARLINK-34748 en tiempo real con AllMySat

Download on the App Store